User: anonymous   Login
Location: Unspecified
(0.0000°N, 0.0000°E)
Time: 16:39:03
(UTC+00:00)
Language:

Transit 4A - Orbit

View from above orbital plane
View from above orbital plane
View from above satellite
View from above satellite

Ground track
Ground track

The orbit data is extracted from the following two-line orbital elements,

1 00116U 61015A   18169.57204691 -.00000074  00000-0  17916-5 0  9991
2 00116  66.8081 192.4323 0073692 165.8048 194.5125 13.91734252890744
Epoch (UTC): 18 June 2018 13:43:44
Eccentricity: 0.0073692
inclination: 66.8081°
perigee height: 869 km
apogee height: 976 km
right ascension of ascending node: 192.4323°
argument of perigee: 165.8048°
revolutions per day: 13.91734252
mean anomaly at epoch: 194.5125°
orbit number at epoch: 89074

The dashed part of the orbit path shows where the satellite is in the earth's shadow,  

DLR